Location: Newark
(40.3500°N, 15.2333°E)
Time: 03:38:04
(UTC+00:00)

Tiros 1 despin weight - Visible Passes

Search period start: 21 January 2020 00:00
Search period end: 31 January 2020 00:00
Orbit: 593 x 643 km, 48.2° (Epoch: 20 January)

Date Brightness Start Highest point End Pass type
(mag) Time Alt. Az. Time Alt. Az. Time Alt. Az.
21 Jan ? 17:03:23 10° WNW 17:08:05 80° NNE 17:12:33 11° ESE visible
21 Jan ? 18:45:38 10° W 18:49:18 23° SW 18:49:40 23° SW visible
22 Jan ? 17:20:01 10° WNW 17:24:37 61° SW 17:29:14 10° SE visible
22 Jan ? 19:04:02 10° WSW 19:05:29 11° SW 19:06:39 10° SW visible
23 Jan ? 17:36:50 10° WNW 17:41:00 33° SW 17:45:11 10° SSE visible
24 Jan ? 17:54:13 10° W 17:57:15 17° SW 18:00:19 10° S visible
26 Jan ? 16:45:11 10° W 16:49:00 25° SW 16:52:49 10° S visible
27 Jan ? 17:03:10 10° WSW 17:05:12 13° SW 17:07:14 10° SSW visible
